Dewpoint
-12 -15 -15 -13 -13 -12 -10 -4 -8 -0 2 1 -0 1 1 1 -1 -2 -2 -3 -1 -1 0 -0 -0 0 4 3 3 5 4 5 5 2 -4 -5 -4 -2 -1 4 6 7 7 6
-11 -14 -15 -15 -12 -12 -11 -8 -2 -1 1 1 -1 -0 -0 -0 0 -2 -0 0 -0 -2 0 1 -0 2 3 3 3 3 3 5 5 0 -1 1 1 2 2 2 3 6 7 6
-9 -11 -12 -14 -14 -12 -13 -8 -5 -2 -0 -2 -4 -2 -2 -1 -0 -0 -1 0 1 1 1 -0 1 1 2 3 3 3 3 4 4 4 3 4 4 3 2 4 5 5 4 3
-11 -11 -12 -13 -13 -12 -9 -10 -7 -4 -3 -3 -3 -3 -3 -3 -4 -2 -2 -1 1 1 1 1 1 -0 -0 2 2 2 3 3 4 3 3 3 3 3 2 3 3 5 5 4
-11 -12 -11 -11 -12 -9 -8 -12 -7 -4 -5 -4 -3 -4 -4 -4 -4 -4 -5 -1 -2 -1 1 -0 -1 -0 2 3 2 2 1 2 3 1 2 3 4 2 1 2 2 5 4 3
-10 -11 -11 -6 -9 -7 -6 -7 -5 -6 -6 -4 -4 -4 -4 -4 -5 -6 -5 -5 -3 -2 -3 -3 -3 -4 -0 -1 -0 1 3 3 2 2 2 2 3 1 1 2 3 4 3 2
-9 -10 -10 -7 -7 -7 -7 -8 -6 -6 -8 -5 -4 -5 -5 -4 -5 -4 -4 -6 -5 -4 -6 -12 -7 -5 0 0 -0 -1 3 3 3 3 3 3 -3 -0 -0 1 1 2 1 -0
-7 -12 -8 -6 -7 -6 -6 -7 -6 -7 -9 -7 -7 -5 -5 -7 -8 -8 -8 -8 -11 -14 -6 -4 -3 -1 1 0 0 1 1 2 3 3 3 1 -2 -5 1 2 0 0 1 0
-11 -12 -9 -10 -7 -6 -6 -6 -6 -6 -6 -7 -9 -8 -8 -7 -6 -6 -7 -8 -8 -6 -4 -6 -5 -2 -0 1 2 1 2 2 3 2 1 0 -3 -2 -1 -3 -1 -3 -2 -1
-12 -12 -11 -9 -9 -7 -4 -4 -4 -4 -4 -6 -8 -6 -7 -7 -6 -7 -5 -6 -6 -4 -2 -1 -4 -5 -1 1 2 2 3 3 3 3 2 0 -3 -4 -3 -1 -2 -5 -3 -3
-9 -8 -6 -7 -13 -11 -6 -4 -4 -4 -5 -5 -6 -7 -7 -7 -7 -6 -7 -7 -8 -7 -2 -1 -2 -3 -2 -0 0 2 1 2 2 2 3 1 -5 -3 -1 -2 -4 -4 -4 -4
-4 -4 -4 -4 -10 -10 -6 -4 -5 -5 -4 -5 -6 -6 -7 -6 -6 -6 -6 -7 -6 -4 -3 -4 -3 -0 -1 1 2 -0 2 -1 -1 -1 -1 -4 -5 -3 -4 -4 -3 -4 -3 -3
-3 -3 -4 -4 -9 -8 -8 -5 -4 -4 -4 -5 -5 -5 -11 -10 -10 -9 -5 -6 -6 -6 -6 -4 -3 -2 -0 0 -0 -1 -2 -2 -1 -1 -2 -3 -4 -4 -4 -5 -5 -3 -2 -2
-3 -4 -4 -5 -7 -7 -7 -5 -4 -5 -4 -4 -7 -8 -8 -11 -9 -8 -7 -7 -7 -6 -6 -4 -3 -2 -3 0 -2 -2 -1 -1 -2 -2 -3 -4 -4 -4 -6 -6 -2 -2 -1 -1
-7 -6 -6 -7 -9 -11 -11 -10 -9 -7 -4 -5 -5 -6 -5 -6 -6 -7 -7 -5 -5 -4 -4 -3 -4 -5 -3 -0 -1 -1 -2 -2 -1 -1 -5 -7 -8 -6 -3 -2 -2 -1 -1 -1
-8 -9 -13 -9 -7 -6 -4 -3 -3 -4 -3 -4 -4 -6 -6 -6 -6 -4 -4 -4 -4 -3 -3 -4 -3 -4 -0 1 1 -3 -4 -4 -6 -6 -8 -8 -6 -2 -4 -5 -4 -3 -2 -1
-12 -13 -11 -5 -3 -3 -4 -3 -2 -3 -4 -4 -3 -4 -6 -4 -3 -3 -3 -2 -3 -3 -3 -2 -2 -1 -0 -1 -1 -5 -5 -4 -6 -7 -6 -3 -2 -2 -3 -3 -3 -2 -1 -0
-13 -7 -4 -3 -3 -3 -3 -4 -3 -2 -3 -3 -2 -3 -2 -1 -2 -2 -2 -2 -2 -2 -1 -2 -2 -2 -2 -2 -3 -5 -7 -6 -6 -8 -5 -4 -4 -3 -3 -2 -2 -1 -0 -0
-5 -3 -3 -3 -3 -3 -4 -3 -3 -3 -3 -3 -3 -3 -3 -2 -2 -2 -2 -2 -2 -2 -1 -2 -3 -3 -3 -4 -4 -6 -8 -10 -10 -7 -7 -5 -3 -2 -2 -2 -1 -0 -0 -1
-4 -4 -3 -4 -4 -4 -4 -2 -2 -3 -2 -2 -4 -4 -3 -3 -4 -3 -3 -3 -2 -2 -4 -3 -3 -3 -5 -8 -8 -12 -12 -12 -8 -5 -2 -2 -2 -2 -1 -1 -2 -1 -1 -1
-5 -4 -5 -5 -6 -6 -3 -4 -5 -5 -6 -5 -5 -4 -4 -3 -5 -4 -4 -3 -3 -3 -4 -3 -3 -2 -4 -5 -4 -6 -7 -8 -8 -4 -3 -4 -3 -1 -2 -3 -2 -2 -1 -1
-3 -3 -4 -5 -5 -6 -8 -8 -6 -4 -5 -4 -5 -5 -4 -2 -2 -5 -4 -3 -4 -4 -5 -3 -3 -5 -3 -2 -3 -3 -5 -7 -6 -3 -3 -4 -2 -3 -3 -3 -3 -3 -3 -3
-4 -4 -4 -5 -7 -12 -12 -12 -5 -6 -5 -3 -2 -2 -3 -3 -3 -4 -3 -4 -4 -4 -2 -3 -4 -3 -2 -3 -2 -3 -4 -4 -1 -2 -2 -2 -3 -4 -4 -4 -4 -3 -3 -4
-4 -4 -7 -10 -10 -5 -7 -5 -5 -3 -2 -2 -2 -2 -3 -4 -3 -4 -4 -5 -3 -2 -2 -2 -4 -2 -3 -2 -2 -2 -2 -1 -1 -2 -3 -4 -4 -4 -5 -5 -4 -4 -5 -6
-4 -4 -8 -5 -5 -3 -3 -3 -3 -3 -3 -2 -2 -2 -3 -3 -6 -3 -3 -3 -3 -3 -4 -7 -3 -3 -2 -1 -1 -2 -2 -2 -3 -4 -4 -5 -5 -5 -6 -5 -5 -6 -6 -6
-3 -3 -3 -3 -4 -6 -4 -4 -3 -2 -2 -2 -1 -1 -1 -2 -2 -2 -2 -4 -5 -7 -8 -3 -1 -3 -1 -2 -4 -4 -5 -5 -4 -4 -5 -5 -5 -6 -6 -6 -6 -6 -6 -6
-3 -4 -2 -2 -4 -5 -5 -3 -3 -2 -2 -1 -3 -4 -3 -4 -3 -3 -4 -6 -7 -5 -3 -2 -1 -1 -2 -3 -4 -5 -5 -5 -5 -5 -5 -6 -6 -6 -6 -6 -6 -7 -6 -6
Wind_Speed
11 12 14 14 13 14 16 13 2 11 16 4 1 2 4 0 3 0 2 1 2 1 2 2 2 3 2 7 2 3 3 1 5 7 15 12 14 5 1 6 8 4 5 11
11 11 12 14 13 14 16 9 5 7 13 3 2 0 1 1 2 2 2 3 3 1 2 3 4 2 0 2 3 2 2 3 6 15 5 7 6 7 11 11 2 10 9 8
11 11 11 12 14 14 12 5 3 2 4 2 3 2 4 2 4 1 2 3 1 0 2 3 5 3 3 3 4 6 4 3 6 9 10 1 6 14 10 3 5 13 14 21
12 11 11 12 13 14 10 3 1 4 3 3 4 2 1 1 3 3 5 3 6 4 4 4 8 6 3 4 3 4 1 5 7 10 10 7 9 12 12 11 11 6 13 16
11 11 11 12 13 14 9 4 5 5 4 5 8 7 3 6 3 2 3 7 2 4 10 8 4 8 2 2 1 5 3 4 6 5 12 13 8 14 11 16 16 9 6 13
12 12 13 13 13 15 6 6 7 3 1 5 7 5 3 5 5 4 8 5 3 6 5 9 15 19 25 17 11 8 6 3 4 7 3 0 7 13 13 10 6 5 7 7
12 13 14 14 13 15 12 11 8 3 2 3 4 2 5 7 6 4 7 8 0 1 9 30 18 20 22 23 20 22 9 6 3 3 2 6 6 4 6 14 9 14 10 11
12 13 15 14 15 16 16 12 8 5 2 5 5 6 4 5 12 8 12 20 29 26 16 3 5 4 4 13 19 19 16 8 5 3 5 6 9 6 6 7 7 14 14 12
13 14 13 14 16 16 16 15 14 7 4 5 12 5 14 5 3 4 8 18 16 10 3 2 4 4 4 3 5 16 17 14 8 4 4 6 5 3 2 1 5 3 5 6
16 14 14 14 17 19 17 13 18 14 7 13 9 6 5 6 5 2 3 5 6 9 4 5 4 8 1 6 5 3 8 10 16 7 5 6 6 9 2 2 6 4 1 5
17 16 15 14 14 17 22 21 19 23 13 22 12 21 17 8 11 4 1 5 5 1 4 3 4 5 7 8 5 5 11 8 4 7 4 9 12 2 8 6 2 5 11 12
18 17 16 16 16 17 19 23 23 22 25 18 9 26 27 29 28 19 14 10 3 6 1 3 4 4 3 6 6 4 4 5 5 8 7 5 7 8 8 6 11 18 18 17
20 20 19 19 19 20 22 25 21 18 25 34 33 31 43 43 40 35 29 24 25 18 14 3 3 8 3 8 10 4 3 4 4 3 6 8 13 9 15 16 16 15 16 15
21 22 21 20 20 21 22 26 27 30 14 7 27 31 33 38 34 40 47 46 36 28 20 14 7 5 7 4 5 8 5 11 7 2 5 2 11 15 18 16 10 12 11 12
17 17 18 20 21 23 26 30 34 36 31 6 9 15 22 25 25 31 39 44 37 27 20 7 8 8 10 7 3 4 6 6 5 4 10 8 5 5 8 8 8 10 10 11
14 15 17 19 23 28 30 27 43 45 44 15 6 17 21 25 30 33 34 40 39 33 14 9 14 30 13 4 3 5 14 12 11 5 8 8 7 7 8 7 8 10 11 11
13 15 20 22 22 17 17 6 3 5 32 9 3 4 12 24 31 33 32 38 31 20 18 10 11 8 14 2 3 4 11 14 11 9 9 8 11 7 6 5 8 10 11 10
13 17 13 10 11 14 14 15 20 12 27 6 3 5 4 6 2 3 9 15 16 19 10 7 4 5 5 3 5 10 14 11 8 11 10 9 10 10 11 10 8 6 7 6
15 4 4 8 2 2 2 5 4 27 7 4 4 2 4 9 6 3 4 4 3 8 4 4 7 2 4 5 13 22 21 10 5 4 4 5 7 7 6 7 6 5 8 10
2 3 2 4 3 5 5 3 7 9 6 5 2 2 3 5 5 4 2 1 2 2 0 1 1 3 9 18 26 20 15 12 11 7 5 6 5 4 5 6 6 5 6 9
2 3 3 3 5 4 6 5 4 5 2 5 4 4 2 2 1 2 3 1 2 1 2 2 2 3 4 8 11 16 20 21 15 8 7 2 4 8 7 7 6 5 8 7
2 4 7 3 2 2 2 2 1 3 3 3 2 1 2 1 2 1 1 2 1 3 3 1 3 3 7 13 12 7 8 6 11 11 6 5 8 8 7 6 6 7 8 8
4 2 2 2 1 4 3 2 2 2 2 3 3 1 1 0 1 1 1 3 2 3 1 3 4 2 6 3 5 8 7 7 14 12 8 8 9 9 7 5 6 7 7 5
3 2 4 4 2 4 3 2 2 3 5 9 8 6 4 3 2 2 2 3 2 3 4 4 2 2 6 10 14 15 14 11 10 9 10 10 9 10 6 6 7 8 7 6
4 5 4 4 5 5 6 11 7 10 12 16 5 4 8 4 1 3 2 1 4 5 4 3 3 11 13 12 11 10 9 7 6 9 9 9 8 7 10 12 10 8 6 7
3 4 3 4 1 3 3 8 6 5 6 3 5 2 3 3 3 2 5 3 4 3 3 3 7 11 9 8 7 7 5 1 7 9 8 9 9 9 11 12 9 8 7 6
3 3 8 7 6 8 8 6 9 9 8 1 2 3 4 1 1 2 4 4 3 3 2 1 6 10 9 7 7 6 2 6 9 10 11 11 9 8 9 10 9 9 10 9
Wind_Direction
172 162 167 169 170 173 170 158 76 158 167 158 157 167 175 292 316 339 333 21 83 322 353 336 271 269 24 1 337 52 13 100 281 271 275 256 247 245 170 234 252 239 250 255
167 163 159 162 164 164 161 121 88 164 174 183 184 121 274 212 219 280 80 355 48 266 238 312 244 272 146 15 64 97 339 31 322 321 346 7 11 11 14 341 129 250 268 256
173 167 164 164 167 166 157 127 87 104 187 68 119 93 270 218 205 221 251 237 217 324 293 240 271 253 232 183 111 132 142 161 224 270 280 285 311 324 332 42 278 276 250 267
175 177 177 173 177 176 168 118 183 152 177 232 152 175 338 102 187 223 193 289 202 173 246 220 238 268 271 228 206 137 192 222 214 231 235 239 248 256 284 286 266 264 316 285
184 184 184 186 184 183 185 132 136 133 139 113 170 203 237 188 189 198 273 236 93 232 243 249 303 331 302 308 276 172 182 254 196 263 226 228 256 251 254 255 265 237 298 324
198 196 193 190 185 185 168 160 141 147 148 138 163 211 200 189 174 257 239 255 346 276 277 327 305 298 282 264 272 250 199 217 206 254 178 180 271 246 228 233 212 218 234 212
205 201 195 192 190 202 207 185 165 144 236 175 201 184 180 214 232 252 283 315 177 198 290 308 301 287 257 252 249 237 223 207 208 266 179 237 242 205 202 224 236 217 258 259
207 200 189 193 195 210 216 217 185 168 214 224 228 235 218 262 260 266 267 266 267 281 290 297 313 293 227 236 237 230 213 210 231 230 215 298 297 255 183 196 262 231 231 270
208 195 193 198 199 214 224 222 213 201 116 238 219 204 225 222 213 323 259 272 277 234 181 126 216 237 297 265 258 215 211 207 215 168 207 222 234 284 201 213 285 220 183 245
209 207 207 208 212 214 223 225 219 217 230 240 216 194 191 180 186 207 292 282 269 228 188 225 208 246 264 271 239 201 205 203 215 200 212 275 237 243 294 135 247 210 303 305
217 218 222 227 230 225 226 232 224 215 238 250 243 232 229 216 206 190 233 355 260 346 216 214 223 241 224 230 231 212 199 177 205 210 214 256 213 140 180 215 306 315 311 303
223 226 231 244 241 230 227 236 240 232 239 254 263 246 250 240 237 241 234 215 233 214 345 15 347 309 247 209 237 208 228 203 181 184 206 228 212 212 206 283 287 297 301 302
232 236 242 251 242 236 235 236 235 236 244 262 255 249 259 256 247 244 238 240 234 241 251 320 266 253 306 222 228 169 227 155 216 115 220 229 232 234 271 291 288 293 298 293
238 244 250 240 241 241 240 240 242 239 231 261 269 263 251 261 253 248 240 243 239 243 247 233 240 255 303 279 270 209 183 162 179 276 277 303 257 249 267 267 272 291 302 305
225 233 242 249 252 255 254 252 246 242 225 262 267 259 259 264 251 244 242 231 232 232 227 227 245 239 247 238 270 244 192 172 165 207 198 171 200 241 258 256 286 285 291 292
240 251 263 266 265 263 254 250 249 242 238 238 261 275 271 252 240 237 237 226 219 218 217 229 233 243 250 213 228 259 226 198 180 182 211 222 190 226 241 263 274 276 273 263
258 269 276 279 271 263 204 213 253 250 215 223 257 263 255 255 249 241 237 229 202 200 209 223 245 269 203 209 224 255 216 213 211 224 251 247 232 227 206 235 282 283 259 239
285 285 266 262 294 216 232 245 256 212 182 209 254 270 299 331 258 182 131 147 172 178 189 214 207 218 228 239 238 226 198 196 219 244 246 256 270 270 277 263 253 241 220 199
285 231 340 304 287 192 222 351 155 180 164 210 215 250 278 344 354 27 80 127 154 154 193 207 169 188 223 216 201 207 209 221 200 200 246 276 279 276 254 216 224 204 201 180
302 326 238 227 208 187 242 205 173 204 216 243 245 208 271 336 342 0 26 71 139 143 244 41 105 259 248 226 218 231 230 246 244 220 198 197 193 196 217 234 235 231 205 185
206 250 239 230 257 224 188 177 179 196 267 216 226 189 238 299 45 290 5 80 23 85 255 157 268 267 246 268 288 265 249 244 250 242 231 194 247 232 204 202 210 206 191 190
220 271 292 288 223 193 121 230 257 200 234 220 231 225 169 16 327 59 271 117 141 189 182 116 288 259 311 328 328 296 250 235 219 214 184 211 199 168 177 171 183 191 185 181
272 251 259 271 271 30 141 263 297 317 214 216 173 314 290 153 194 289 354 71 218 103 58 236 232 294 325 310 72 77 84 154 185 172 173 166 157 149 154 165 171 169 169 184
241 203 296 160 273 224 195 193 225 278 231 213 202 164 183 215 211 197 169 226 172 224 222 233 235 216 160 121 100 98 103 121 143 146 141 138 139 149 153 143 148 157 158 176
209 188 225 212 238 264 256 277 251 258 242 216 208 198 169 189 156 188 190 283 224 218 226 230 182 177 142 118 110 107 109 108 134 134 134 130 140 146 145 140 138 138 157 170
236 226 247 209 167 265 280 289 275 310 239 292 205 159 168 201 163 159 219 171 232 255 222 274 168 165 161 135 113 88 52 110 148 143 140 141 143 148 153 150 158 159 147 150
234 248 227 240 263 264 284 291 282 306 311 204 158 132 191 109 136 245 180 205 221 218 268 271 196 199 180 162 151 117 125 153 155 150 144 143 142 145 156 159 161 164 160 151
Height
1437 1438 1441 1443 1447 1451 1455 1457 1465 1465 1468 1474 1473 1476 1478 1479 1475 1475 1478 1478 1477 1478 1479 1478 1477 1473 1474 1474 1472 1475 1477 1476 1475 1462 1453 1449 1449 1451 1453 1461 1462 1460 1451 1439
1436 1439 1441 1443 1448 1451 1454 1458 1464 1467 1468 1472 1475 1476 1478 1477 1479 1478 1478 1478 1479 1477 1478 1482 1478 1474 1474 1473 1474 1477 1476 1480 1475 1459 1455 1458 1458 1460 1459 1458 1457 1460 1450 1433
1437 1438 1441 1444 1449 1452 1456 1459 1468 1470 1470 1472 1473 1477 1477 1478 1477 1477 1476 1477 1479 1480 1481 1481 1478 1476 1473 1473 1474 1476 1476 1477 1483 1482 1473 1479 1475 1470 1468 1466 1463 1450 1442 1431
1436 1439 1442 1445 1450 1453 1457 1458 1464 1464 1471 1472 1474 1477 1477 1477 1477 1476 1476 1475 1476 1480 1481 1478 1476 1474 1474 1472 1473 1474 1477 1479 1477 1476 1475 1474 1470 1466 1465 1465 1456 1455 1445 1434
1437 1439 1443 1447 1450 1453 1457 1458 1461 1465 1468 1469 1473 1477 1476 1475 1477 1477 1476 1474 1476 1477 1478 1478 1477 1476 1475 1475 1474 1473 1476 1476 1475 1478 1468 1469 1459 1452 1447 1455 1449 1442 1442 1436
1438 1441 1444 1447 1450 1453 1455 1458 1460 1462 1467 1469 1473 1473 1471 1473 1474 1474 1473 1473 1475 1476 1478 1478 1477 1477 1474 1471 1473 1474 1473 1473 1473 1462 1460 1460 1460 1443 1437 1438 1436 1437 1434 1418
1438 1440 1443 1446 1449 1452 1455 1457 1460 1463 1468 1467 1466 1466 1469 1471 1472 1474 1473 1475 1476 1476 1475 1473 1469 1465 1464 1464 1461 1465 1464 1465 1465 1456 1457 1455 1435 1427 1427 1430 1425 1426 1423 1421
1436 1439 1441 1445 1448 1451 1454 1456 1459 1461 1468 1462 1462 1466 1468 1469 1470 1472 1471 1473 1473 1475 1476 1476 1472 1462 1452 1446 1447 1450 1452 1455 1455 1453 1449 1444 1431 1425 1429 1431 1422 1418 1417 1414
1435 1438 1441 1444 1447 1450 1452 1454 1457 1460 1462 1459 1460 1463 1465 1467 1468 1469 1466 1468 1467 1470 1471 1477 1478 1466 1449 1442 1437 1433 1443 1445 1450 1452 1454 1457 1431 1422 1421 1424 1429 1412 1410 1412
1434 1436 1439 1442 1445 1447 1449 1450 1454 1457 1458 1456 1457 1459 1461 1462 1464 1467 1466 1466 1464 1463 1466 1463 1471 1455 1443 1443 1436 1435 1433 1434 1432 1438 1439 1434 1421 1418 1421 1432 1425 1409 1409 1411
1431 1434 1436 1439 1441 1443 1445 1447 1450 1454 1452 1450 1451 1452 1455 1457 1459 1464 1465 1466 1460 1462 1461 1456 1456 1453 1438 1434 1430 1427 1423 1426 1431 1431 1435 1434 1412 1417 1421 1414 1410 1409 1409 1409
1427 1430 1432 1435 1437 1440 1442 1444 1446 1450 1449 1444 1444 1446 1449 1452 1453 1457 1457 1457 1456 1456 1457 1456 1454 1443 1435 1425 1421 1422 1423 1420 1425 1422 1417 1407 1408 1407 1407 1408 1410 1408 1407 1405
1423 1426 1428 1430 1432 1435 1438 1439 1442 1445 1444 1438 1437 1433 1434 1439 1441 1446 1449 1447 1454 1453 1455 1456 1454 1447 1432 1419 1410 1408 1408 1410 1416 1414 1405 1406 1406 1403 1404 1406 1407 1406 1404 1402
1419 1421 1423 1425 1428 1430 1433 1433 1436 1438 1438 1432 1415 1422 1421 1424 1428 1430 1432 1435 1443 1448 1452 1451 1446 1438 1430 1415 1405 1398 1398 1403 1404 1408 1402 1403 1401 1401 1404 1404 1403 1402 1400 1400
1414 1417 1419 1421 1423 1425 1426 1426 1426 1428 1434 1420 1413 1412 1412 1412 1414 1416 1420 1426 1434 1439 1442 1437 1434 1431 1432 1416 1406 1397 1391 1392 1396 1400 1392 1396 1397 1400 1401 1401 1399 1398 1397 1397
1411 1413 1414 1415 1415 1417 1418 1413 1411 1415 1416 1418 1412 1402 1398 1400 1400 1401 1404 1411 1419 1425 1427 1428 1422 1416 1421 1402 1397 1388 1385 1384 1383 1386 1388 1392 1396 1398 1398 1398 1397 1396 1395 1394
1408 1409 1408 1407 1405 1403 1404 1404 1402 1402 1409 1413 1408 1398 1387 1385 1383 1385 1386 1388 1400 1410 1417 1413 1411 1407 1401 1397 1394 1380 1380 1381 1381 1383 1387 1390 1392 1394 1394 1395 1394 1394 1393 1392
1404 1404 1403 1401 1399 1400 1400 1399 1397 1400 1405 1408 1403 1392 1385 1379 1375 1375 1376 1383 1394 1399 1402 1403 1402 1398 1393 1391 1381 1380 1379 1380 1381 1382 1383 1385 1387 1389 1389 1389 1390 1392 1393 1391
1400 1399 1399 1399 1399 1399 1399 1397 1396 1397 1404 1402 1399 1394 1387 1379 1376 1375 1377 1380 1388 1389 1391 1390 1390 1390 1389 1379 1377 1374 1373 1376 1378 1379 1380 1381 1382 1383 1384 1386 1387 1389 1392 1392
1397 1399 1400 1399 1398 1399 1400 1400 1400 1400 1400 1396 1394 1391 1388 1384 1379 1377 1377 1379 1383 1382 1383 1382 1386 1382 1375 1370 1367 1369 1372 1373 1375 1376 1378 1379 1379 1379 1381 1384 1385 1387 1389 1391
1398 1398 1397 1396 1396 1397 1397 1397 1398 1396 1395 1390 1388 1388 1387 1385 1385 1382 1381 1381 1382 1385 1386 1388 1386 1382 1370 1367 1366 1365 1367 1370 1373 1374 1375 1374 1377 1380 1380 1381 1384 1386 1388 1390
1397 1396 1394 1394 1394 1394 1395 1395 1393 1392 1389 1386 1385 1385 1385 1386 1385 1385 1384 1384 1387 1384 1386 1386 1387 1369 1364 1361 1358 1358 1361 1363 1369 1371 1372 1374 1377 1377 1379 1382 1384 1386 1389 1391
1395 1395 1395 1393 1394 1400 1397 1398 1390 1393 1384 1384 1383 1384 1384 1385 1386 1385 1384 1388 1390 1384 1385 1386 1374 1367 1365 1364 1360 1359 1357 1362 1368 1370 1372 1374 1375 1376 1380 1383 1385 1387 1389 1391
1394 1394 1397 1395 1399 1392 1390 1388 1388 1384 1383 1382 1382 1383 1386 1384 1386 1385 1387 1386 1384 1383 1379 1374 1372 1367 1367 1365 1363 1362 1366 1369 1371 1372 1373 1373 1375 1378 1381 1383 1386 1388 1391 1393
1393 1393 1397 1388 1383 1383 1384 1384 1383 1381 1379 1379 1378 1378 1380 1381 1386 1381 1382 1385 1381 1374 1374 1371 1366 1369 1366 1365 1366 1368 1370 1372 1373 1373 1374 1375 1377 1380 1382 1385 1388 1390 1392 1394
1387 1385 1383 1381 1380 1379 1378 1377 1376 1375 1373 1372 1372 1371 1372 1375 1374 1376 1375 1377 1378 1371 1366 1363 1363 1364 1366 1367 1368 1369 1371 1373 1374 1375 1376 1378 1381 1383 1385 1387 1389 1391 1392 1394
1382 1379 1377 1377 1377 1376 1374 1373 1372 1370 1368 1365 1368 1371 1367 1370 1373 1372 1370 1373 1367 1362 1362 1362 1363 1365 1366 1367 1369 1370 1372 1374 1375 1377 1379 1381 1383 1385 1386 1387 1389 1391 1392 1394